METAR Formatted Surface Weather Observation
Issued by NWS

Home | Current Version | Previous Version | Text Only | Print | Product List | Glossary On
Versions: 1 2 3 4 5 6 7 8 9 10 11 12 13 14 15 16 17 18 19 20 21 22 23 24 25 26 27 28 29 30 31 32 33 34 35 36 37 38 39 40 41 42 43 44 45 46 47 48 49 50
000
SAUS44 KMAF 311221 COR
MTRGDP
METAR KGDP 311151Z AUTO 25007KT 10SM FEW120 15/11 A3007 RMK AO2
RAE07 SLP128 P0000 60001 70011 T01500106 10167 20139 56001



USA.gov is the U.S. government's official web portal to all federal, state and local government web resources and services.